Regional Weather Roundup
Issued by NWS

Home | Current Version | Previous Version | Graphics & Text | Print | Product List | Glossary On
Versions: 1 2 3 4 5 6 7 8 9 10 11 12 13 14 15 16 17 18 19 20 21 22 23 24 25 26 27 28 29 30 31 32 33 34 35 36 37 38 39 40 41 42 43 44 45 46 47 48 49 50
427
ASUS44 KLIX 252005
RWRLA
LOUISIANA WEATHER ROUNDUP
NATIONAL WEATHER SERVICE NEW ORLEANS LA
200 PM CST THU DEC 25 2014

NOTE: "FAIR" INDICATES FEW OR NO CLOUDS BELOW 12,000 FEET WITH NO
      SIGNIFICANT WEATHER AND/OR OBSTRUCTIONS TO VISIBILITY.
      SKY/WX - SKY CONDITION AND SIGNIFICANT WEATHER.
      TMP - AIR TEMPERATURE.    DP   - DEWPOINT TEMPERATURE.
      RH  - RELATIVE HUMIDITY.  PRES - PRESSURE.
      HX  - HEAT INDEX.         WCI  - WIND CHILL INDEX.

*  THESE STATIONS ARE NOT NWS OR FAA STATIONS AND ARE NOT UNDER
   NWS QUALITY CONTROL.

LAZ040-048-061>063-065-066-069-252100-
SOUTHEAST LOUISIANA

CITY           SKY/WX    TMP DP  RH WIND       PRES   REMARKS
N.O. AUDUBON   NOT AVBL
N.O. INTL ARPT MOSUNNY   57  37  47 NE7       30.23F
N.O. LAKEFRONT SUNNY     55  39  54 N6        30.23F
N.O. DOWNTOWN* FAIR      57  34  41 CALM      30.23F
SLIDELL        SUNNY     56  38  50 S7        30.22F
BATON ROUGE    SUNNY     57  33  40 S9        30.20F
BOOTHVILLE     SUNNY     54  39  57 NE6       30.24F
BELLE CHASSE   SUNNY     57  34  41 SE5       30.22F
BOGALUSA*        N/A     58  35  41 CALM      30.23F
GALLIANO*      PTCLDY    59  37  44 MISG      30.23F
NEW ROADS*     FAIR      57  35  42 S7        30.21S
GONZALES*      FAIR      57  37  46 SE5       30.20F
HAMMOND*       NOT AVBL
HOUMA*         SUNNY     55  36  47 S6        30.22F
PORT FOURCHON* CLEAR     55  39  54 VRB6      30.26F

$$

LAZ041-044-053-054-252100-
SOUTHWEST LOUISIANA

CITY           SKY/WX    TMP DP  RH WIND       PRES   REMARKS
LAKE CHARLES   MOSUNNY   59  42  53 S9G18     30.17F
LAFAYETTE      MOSUNNY   57  36  45 S6        30.20F
PATTERSON      SUNNY     57  36  44 SE10      30.21F
SALT POINT       N/A     67  40  37 VRB5      30.21F
NEW IBERIA     MOSUNNY   58  36  43 SE7       30.20F
CHENAULT AIRPK MOSUNNY   59  41  51 S12       30.17F

$$

LAZ027-028-252100-
CENTRAL LOUISIANA

CITY           SKY/WX    TMP DP  RH WIND       PRES   REMARKS
FORT POLK      SUNNY     59  39  47 S12       30.13F
ALEXANDRIA INT SUNNY     59  36  42 S6        30.15F
ALEXANDRIA     SUNNY     60  37  42 S10       30.16F

$$

LAZ001-002-252100-
NORTHWEST LOUISIANA

CITY           SKY/WX    TMP DP  RH WIND       PRES   REMARKS
SHREVEPORT     MOSUNNY   61  35  37 S15G25    30.07F
BARKSDALE AFB  SUNNY     60  33  36 S15       30.07F
DTN SHREVEPORT SUNNY     59  33  37 S15G24    30.07F

$$

LAZ014-016-252100-
NORTHEAST LOUISIANA

CITY           SKY/WX    TMP DP  RH WIND       PRES   REMARKS
MONROE         SUNNY     58  35  42 S13       30.15F
TALLULAH       SUNNY     56  33  42 S6        30.18F

$$




USA.gov is the U.S. government's official web portal to all federal, state and local government web resources and services.